TimeCST,TemperatureF,Dew PointF,Humidity,Sea Level PressureIn,VisibilityMPH,Wind Direction,Wind SpeedMPH,Gust SpeedMPH,PrecipitationIn,Events,Conditions,WindDirDegrees,DateUTC
12:13 AM,21.2,14.0,74,30.11,10.0,WNW,5.8,-,N/A,,Clear,300,2012-11-13 06:13:00
12:33 AM,21.2,14.0,74,30.13,10.0,NW,6.9,-,N/A,,Scattered Clouds,310,2012-11-13 06:33:00
12:53 AM,21.2,14.0,74,30.13,10.0,West,4.6,-,N/A,,Scattered Clouds,280,2012-11-13 06:53:00
1:13 AM,21.2,14.0,74,30.14,10.0,NW,4.6,-,N/A,,Mostly Cloudy,310,2012-11-13 07:13:00
1:33 AM,21.2,14.0,74,30.15,10.0,West,6.9,-,N/A,,Mostly Cloudy,280,2012-11-13 07:33:00
1:53 AM,21.2,14.0,74,30.16,10.0,West,5.8,-,N/A,,Mostly Cloudy,280,2012-11-13 07:53:00
2:13 AM,21.2,14.0,74,30.17,10.0,West,4.6,-,N/A,,Scattered Clouds,280,2012-11-13 08:13:00
2:33 AM,21.2,14.0,74,30.17,10.0,West,6.9,-,N/A,,Mostly Cloudy,280,2012-11-13 08:33:00
2:53 AM,21.2,14.0,74,30.18,10.0,Calm,Calm,-,N/A,,Mostly Cloudy,0,2012-11-13 08:53:00
3:33 AM,21.2,12.2,68,30.19,10.0,West,8.1,-,N/A,,Mostly Cloudy,280,2012-11-13 09:33:00
3:53 AM,21.2,12.2,68,30.19,10.0,West,4.6,-,N/A,,Scattered Clouds,260,2012-11-13 09:53:00
4:13 AM,21.2,12.2,68,30.20,10.0,West,3.5,-,N/A,,Mostly Cloudy,270,2012-11-13 10:13:00
4:33 AM,21.2,12.2,68,30.20,10.0,West,3.5,-,N/A,,Mostly Cloudy,260,2012-11-13 10:33:00
4:53 AM,21.2,12.2,68,30.21,10.0,West,3.5,-,N/A,,Scattered Clouds,260,2012-11-13 10:53:00
5:13 AM,21.2,12.2,68,30.21,10.0,West,3.5,-,N/A,,Scattered Clouds,260,2012-11-13 11:13:00
5:33 AM,21.2,12.2,68,30.22,10.0,WSW,3.5,-,N/A,,Scattered Clouds,250,2012-11-13 11:33:00
5:53 AM,21.2,12.2,68,30.23,10.0,West,4.6,-,N/A,,Scattered Clouds,260,2012-11-13 11:53:00
6:13 AM,21.2,14.0,74,30.23,10.0,West,5.8,-,N/A,,Scattered Clouds,260,2012-11-13 12:13:00
6:33 AM,21.2,12.2,68,30.24,10.0,Calm,Calm,-,N/A,,Scattered Clouds,0,2012-11-13 12:33:00
6:53 AM,19.4,12.2,74,30.24,10.0,West,3.5,-,N/A,,Scattered Clouds,260,2012-11-13 12:53:00
7:13 AM,19.4,12.2,74,30.24,10.0,West,4.6,-,N/A,,Scattered Clouds,270,2012-11-13 13:13:00
7:33 AM,19.4,12.2,74,30.25,10.0,Calm,Calm,-,N/A,,Scattered Clouds,0,2012-11-13 13:33:00
7:53 AM,21.2,15.8,80,30.25,10.0,WSW,3.5,-,N/A,,Scattered Clouds,250,2012-11-13 13:53:00
8:13 AM,23.0,14.0,68,30.25,10.0,SW,5.8,-,N/A,,Clear,230,2012-11-13 14:13:00
8:33 AM,23.0,14.0,68,30.25,10.0,SW,8.1,-,N/A,,Scattered Clouds,220,2012-11-13 14:33:00
8:53 AM,23.0,14.0,68,30.26,10.0,WSW,6.9,-,N/A,,Clear,240,2012-11-13 14:53:00
9:14 AM,24.8,14.0,64,30.27,10.0,SW,6.9,-,N/A,,Clear,230,2012-11-13 15:14:00
9:33 AM,24.8,14.0,64,30.27,10.0,WSW,8.1,-,N/A,,Clear,240,2012-11-13 15:33:00
9:53 AM,24.8,14.0,64,30.27,10.0,SW,8.1,-,N/A,,Clear,220,2012-11-13 15:53:00
10:13 AM,26.6,14.0,59,30.27,10.0,SW,6.9,-,N/A,,Clear,220,2012-11-13 16:13:00
10:33 AM,28.4,15.8,59,30.26,10.0,SW,4.6,-,N/A,,Clear,230,2012-11-13 16:33:00
10:53 AM,28.4,12.2,51,30.26,10.0,WSW,6.9,-,N/A,,Clear,240,2012-11-13 16:53:00
11:13 AM,30.2,12.2,47,30.25,10.0,SW,6.9,-,N/A,,Clear,230,2012-11-13 17:13:00
11:33 AM,30.2,12.2,47,30.24,10.0,SW,8.1,-,N/A,,Clear,220,2012-11-13 17:33:00
12:15 PM,30.2,12.2,47,30.22,-9999.0,SSW,8.1,-,N/A,,Unknown,210,2012-11-13 18:15:00
12:33 PM,32.0,12.2,44,30.23,10.0,SSW,5.8,-,N/A,,Clear,210,2012-11-13 18:33:00
12:53 PM,32.0,15.8,51,30.22,10.0,SSW,9.2,-,N/A,,Clear,210,2012-11-13 18:53:00
1:13 PM,32.0,15.8,51,30.22,10.0,South,9.2,-,N/A,,Clear,190,2012-11-13 19:13:00
1:33 PM,32.0,15.8,51,30.22,10.0,SW,10.4,-,N/A,,Clear,220,2012-11-13 19:33:00
1:53 PM,32.0,15.8,51,30.22,10.0,SSW,10.4,-,N/A,,Clear,210,2012-11-13 19:53:00
2:13 PM,32.0,15.8,51,30.22,10.0,South,8.1,-,N/A,,Clear,190,2012-11-13 20:13:00
2:33 PM,32.0,15.8,51,30.22,10.0,SSW,10.4,-,N/A,,Clear,210,2012-11-13 20:33:00
2:53 PM,30.2,15.8,55,30.21,10.0,SSW,6.9,-,N/A,,Clear,210,2012-11-13 20:53:00
3:13 PM,30.2,15.8,55,30.22,10.0,SSW,5.8,-,N/A,,Clear,200,2012-11-13 21:13:00
3:33 PM,30.2,15.8,55,30.22,10.0,SSW,4.6,-,N/A,,Clear,200,2012-11-13 21:33:00
3:53 PM,30.2,15.8,55,30.23,10.0,SSW,8.1,-,N/A,,Mostly Cloudy,210,2012-11-13 21:53:00
4:13 PM,30.2,15.8,55,30.23,10.0,SW,8.1,-,N/A,,Scattered Clouds,220,2012-11-13 22:13:00
4:33 PM,30.2,15.8,55,30.24,10.0,SW,3.5,-,N/A,,Scattered Clouds,220,2012-11-13 22:33:00
4:53 PM,28.4,15.8,59,30.24,10.0,Calm,Calm,-,N/A,,Scattered Clouds,0,2012-11-13 22:53:00
5:13 PM,28.4,15.8,59,30.24,10.0,Calm,Calm,-,N/A,,Mostly Cloudy,0,2012-11-13 23:13:00
5:33 PM,28.4,15.8,59,30.24,10.0,Calm,Calm,-,N/A,,Mostly Cloudy,0,2012-11-13 23:33:00
5:53 PM,26.6,15.8,64,30.25,10.0,Calm,Calm,-,N/A,,Scattered Clouds,0,2012-11-13 23:53:00
6:13 PM,26.6,15.8,64,30.25,10.0,Calm,Calm,-,N/A,,Scattered Clouds,0,2012-11-14 00:13:00
6:33 PM,26.6,15.8,64,30.25,10.0,Calm,Calm,-,N/A,,Mostly Cloudy,0,2012-11-14 00:33:00
6:53 PM,24.8,15.8,69,30.25,10.0,Calm,Calm,-,N/A,,Scattered Clouds,0,2012-11-14 00:53:00
7:13 PM,24.8,15.8,69,30.25,10.0,Calm,Calm,-,N/A,,Scattered Clouds,0,2012-11-14 01:13:00
7:33 PM,26.6,17.6,69,30.25,10.0,Calm,Calm,-,N/A,,Scattered Clouds,0,2012-11-14 01:33:00
7:53 PM,26.6,17.6,69,30.25,10.0,Calm,Calm,-,N/A,,Scattered Clouds,0,2012-11-14 01:53:00
8:13 PM,26.6,17.6,69,30.25,10.0,Calm,Calm,-,N/A,,Mostly Cloudy,0,2012-11-14 02:13:00
8:33 PM,26.6,17.6,69,30.25,10.0,Calm,Calm,-,N/A,,Overcast,0,2012-11-14 02:33:00
8:53 PM,26.6,17.6,69,30.25,10.0,Calm,Calm,-,N/A,,Mostly Cloudy,0,2012-11-14 02:53:00
9:13 PM,24.8,17.6,74,30.26,10.0,Calm,Calm,-,N/A,,Overcast,0,2012-11-14 03:13:00
9:33 PM,24.8,17.6,74,30.25,10.0,Calm,Calm,-,N/A,,Overcast,0,2012-11-14 03:33:00
9:53 PM,24.8,17.6,74,30.25,10.0,Calm,Calm,-,N/A,,Overcast,0,2012-11-14 03:53:00
10:13 PM,24.8,17.6,74,30.25,10.0,Calm,Calm,-,N/A,,Overcast,0,2012-11-14 04:13:00
10:33 PM,24.8,17.6,74,30.25,10.0,Calm,Calm,-,N/A,,Overcast,0,2012-11-14 04:33:00
10:53 PM,24.8,17.6,74,30.25,10.0,Calm,Calm,-,N/A,,Mostly Cloudy,0,2012-11-14 04:53:00
11:13 PM,24.8,17.6,74,30.25,10.0,Calm,Calm,-,N/A,,Mostly Cloudy,0,2012-11-14 05:13:00
11:33 PM,24.8,19.4,80,30.25,10.0,Calm,Calm,-,N/A,,Overcast,0,2012-11-14 05:33:00
11:53 PM,24.8,17.6,74,30.25,10.0,Calm,Calm,-,N/A,,Overcast,0,2012-11-14 05:53:00